Oskaloosa, IA

8:36 PM CDT on May 28, 2017 (GMT -0500)
Oskaloosa Municipal

Weather History for KOOA - April, 2014

Change the Weather History Date:

Thursday, April 3, 2014

  Actual Average (KOTM) Record (KOTM)
Temperature  
Mean Temperature 40 °F -  
Max Temperature 44 °F 54 °F 86 °F (2011)
Min Temperature 37 °F 35 °F 11 °F (1936)
Degree Days  
Heating Degree Days 24    
Moisture  
Dew Point 40 °F    
Average Humidity 95    
Maximum Humidity 99    
Minimum Humidity 78    
Precipitation  
Precipitation 0.07 in - - ()
Sea Level Pressure  
Sea Level Pressure 29.71 in    
Wind  
Wind Speed 16 mph (East)    
Max Wind Speed 31 mph    
Max Gust Speed 38 mph    
Visibility 2 miles    
Events Fog , Rain    
Averages and records for this station are not official NWS values.
T = Trace of Precipitation, MM = Missing Value Source: NWS Daily Summary

Daily Weather History Graph

Daily Weather History Graph

Search for Another Location

Airport or City:

Trip Planner

Search our weather history database for the weather conditions in past years. The results will help you decide how hot, cold, wet, or windy it might be!

Date:

Astronomy

Apr. 03, 2014 Rise Set
Actual Time 6:49 AM CDT 7:37 PM CDT
Civil Twilight 6:21 AM CDT 8:05 PM CDT
Nautical Twilight 5:48 AM CDT 8:38 PM CDT
Astronomical Twilight 5:14 AM CDT 9:12 PM CDT
Moon 9:17 AM CDT (4/3) 11:59 PM CDT (4/3)
Length of Visible Light 13h 43m
Length of Day
12h 47m
Waxing Crescent, 17% of the Moon is Illuminated
Apr 3
Waxing Crescent
Apr 7
First Quarter
Apr 15
Full
Apr 22
Last Quarter
Apr 29
New

Hourly Weather History & Observations

Time (CDT) Temp. Windchill Dew Point Humidity Pressure Visibility Wind Dir Wind Speed Gust Speed Precip Events Conditions
12:15 AM 43.7 °F 35.2 °F 37.2 °F 78% 29.86 in 10.0 mi East 20.7 mph 26.5 mph N/A   Overcast
12:35 AM 43.2 °F 34.5 °F 37.4 °F 80% 29.84 in 7.0 mi East 20.7 mph 28.8 mph N/A   Overcast
12:55 AM 42.6 °F 33.8 °F 37.4 °F 82% 29.82 in 7.0 mi East 20.7 mph 26.5 mph N/A   Overcast
1:15 AM 41.9 °F 33.1 °F 37.6 °F 85% 29.82 in 7.0 mi East 19.6 mph 24.2 mph N/A   Overcast
1:35 AM 41.2 °F 31.4 °F 38.3 °F 89% 29.82 in 4.0 mi ESE 23.0 mph - N/A   Overcast
1:55 AM 40.6 °F 31.2 °F 38.3 °F 91% 29.81 in 2.5 mi East 20.7 mph 27.6 mph N/A   Overcast
2:15 AM 40.3 °F 29.9 °F 38.5 °F 93% 29.79 in 1.8 mi East 24.2 mph 31.1 mph N/A Rain Light Rain
2:35 AM 40.1 °F 30.7 °F 38.3 °F 93% 29.81 in 2.5 mi ESE 19.6 mph 24.2 mph 0.03 in Rain Rain
2:55 AM 39.4 °F 27.5 °F 37.9 °F 95% 29.72 in 2.0 mi SE 31.1 mph 38.0 mph 0.06 in Rain Light Rain
3:15 AM 39.4 °F 31.4 °F 38.3 °F 96% 29.73 in 2.5 mi ENE 13.8 mph 20.7 mph N/A Rain Light Rain
3:35 AM 39.9 °F 33.4 °F 38.5 °F 95% 29.77 in 4.0 mi ENE 10.4 mph 20.7 mph 0.01 in   Overcast
3:55 AM 39.6 °F 30.3 °F 38.3 °F 95% 29.75 in 3.0 mi ENE 18.4 mph - 0.01 in   Overcast
4:15 AM 39.4 °F 30.4 °F 38.3 °F 96% 29.68 in 3.0 mi East 17.3 mph 21.9 mph N/A Rain Light Rain
4:35 AM 39.4 °F 32.7 °F 38.3 °F 96% 29.72 in 3.0 mi East 10.4 mph 18.4 mph N/A   Overcast
4:55 AM 38.7 °F 30.9 °F 37.4 °F 95% 29.77 in 2.5 mi NNW 12.7 mph - N/A   Overcast
5:15 AM 38.3 °F 30.1 °F 37.0 °F 95% 29.76 in 3.0 mi NE 13.8 mph - N/A   Overcast
5:35 AM 38.3 °F 29.7 °F 37.4 °F 97% 29.75 in 4.0 mi ENE 15.0 mph - N/A   Overcast
5:55 AM 38.5 °F 30.7 °F 37.4 °F 96% 29.76 in 4.0 mi NE 12.7 mph - N/A   Overcast
6:15 AM 38.7 °F 32.4 °F 37.4 °F 95% 29.79 in 4.0 mi NNE 9.2 mph - N/A   Overcast
6:35 AM 38.1 °F 30.7 °F 36.9 °F 95% 29.76 in 2.5 mi ENE 11.5 mph - N/A   Overcast
6:55 AM 37.8 °F 29.0 °F 36.7 °F 96% 29.74 in 2.0 mi ENE 15.0 mph - N/A   Overcast
7:15 AM 37.8 °F 29.8 °F 36.9 °F 97% 29.76 in 2.5 mi East 12.7 mph - N/A   Overcast
7:35 AM 37.9 °F 29.6 °F 37.0 °F 97% 29.76 in 2.5 mi East 13.8 mph 19.6 mph N/A   Overcast
7:55 AM 38.3 °F 27.8 °F 37.0 °F 95% 29.70 in 2.5 mi East 21.9 mph 29.9 mph N/A Rain Light Rain
8:15 AM 38.7 °F 31.4 °F 37.6 °F 96% 29.73 in 2.5 mi East 11.5 mph - N/A   Overcast
8:35 AM 38.8 °F 29.7 °F 37.8 °F 96% 29.69 in 2.0 mi East 17.3 mph 23.0 mph N/A Rain Light Rain
8:55 AM 39.4 °F 31.1 °F 38.3 °F 96% 29.71 in 1.2 mi East 15.0 mph - N/A   Overcast
9:15 AM 39.4 °F 31.4 °F 38.5 °F 97% 29.72 in 1.5 mi ENE 13.8 mph - N/A   Overcast
9:35 AM 40.1 °F 35.3 °F 39.2 °F 97% 29.75 in 1.5 mi NE 6.9 mph - N/A   Overcast
9:55 AM 40.1 °F 34.7 °F 39.2 °F 97% 29.74 in 1.5 mi ENE 8.1 mph - N/A   Overcast
10:15 AM 40.5 °F 34.1 °F 39.6 °F 97% 29.73 in 1.2 mi ENE 10.4 mph - N/A   Overcast
10:35 AM 40.6 °F 34.8 °F 39.7 °F 97% 29.75 in 1.5 mi ENE 9.2 mph - N/A   Overcast
10:55 AM 41.0 °F 35.8 °F 40.1 °F 97% 29.76 in 1.2 mi ENE 8.1 mph - N/A   Overcast
11:15 AM 41.4 °F 35.2 °F 40.5 °F 97% 29.75 in 1.0 mi NE 10.4 mph - N/A   Overcast
11:35 AM 41.9 °F 36.3 °F 41.0 °F 97% 29.75 in 0.8 mi ENE 9.2 mph - N/A   Overcast
11:55 AM 41.9 °F 34.6 °F 41.0 °F 97% 29.74 in 0.5 mi ENE 13.8 mph - N/A Fog Fog
12:15 PM 42.4 °F 34.7 °F 41.5 °F 97% 29.73 in 0.5 mi ENE 16.1 mph - N/A Fog Fog
12:35 PM 42.4 °F 35.3 °F 41.5 °F 97% 29.72 in 0.5 mi ENE 13.8 mph - N/A Fog Fog
12:55 PM 42.8 °F 35.8 °F 42.1 °F 97% 29.71 in 0.5 mi ENE 13.8 mph - N/A Fog Fog
1:15 PM 43.0 °F 35.4 °F 42.3 °F 97% 29.69 in 1.0 mi ENE 16.1 mph - N/A   Overcast
1:35 PM 43.7 °F 36.6 °F 43.0 °F 97% 29.70 in 1.5 mi East 15.0 mph - N/A   Overcast
1:55 PM 43.9 °F 36.5 °F 43.2 °F 97% 29.70 in 1.8 mi East 16.1 mph - N/A   Overcast
2:15 PM 44.4 °F 37.9 °F 43.5 °F 97% 29.68 in 1.5 mi East 13.8 mph - N/A   Overcast
2:35 PM 44.6 °F 37.8 °F 43.7 °F 97% 29.68 in 1.5 mi ENE 15.0 mph - N/A   Overcast
2:55 PM 44.6 °F 37.8 °F 43.5 °F 96% 29.68 in 0.8 mi East 15.0 mph - N/A   Overcast
3:15 PM 44.4 °F 36.9 °F 43.3 °F 96% 29.68 in 1.0 mi East 17.3 mph - N/A   Overcast
3:35 PM 44.6 °F 36.9 °F 43.3 °F 95% 29.67 in 1.0 mi East 18.4 mph - N/A   Overcast
3:55 PM 44.6 °F 38.1 °F 43.7 °F 97% 29.65 in 0.8 mi East 13.8 mph 20.7 mph N/A   Overcast
4:15 PM 44.1 °F 36.5 °F 43.2 °F 97% 29.65 in 0.5 mi East 17.3 mph 25.3 mph N/A Fog Fog
4:35 PM 44.2 °F 36.4 °F 43.3 °F 97% 29.66 in 0.5 mi East 18.4 mph - N/A Fog Fog
4:55 PM 43.9 °F 37.2 °F 43.0 °F 97% 29.66 in 0.5 mi East 13.8 mph 20.7 mph N/A Fog Fog
5:15 PM 43.9 °F 36.2 °F 43.2 °F 97% 29.63 in 0.2 mi East 17.3 mph - N/A Fog Fog
5:55 PM 44.2 °F 37.3 °F 43.5 °F 97% 29.63 in 0.5 mi East 15.0 mph - N/A Fog Fog
6:15 PM 44.2 °F 37.0 °F 43.7 °F 98% 29.62 in 0.5 mi East 16.1 mph - N/A Fog Fog
6:35 PM 44.2 °F 38.0 °F 43.7 °F 98% 29.61 in 1.2 mi East 12.7 mph 19.6 mph N/A   Overcast
6:55 PM 44.1 °F 38.6 °F 43.3 °F 97% 29.61 in 1.0 mi East 10.4 mph - N/A   Overcast
7:15 PM 43.9 °F 36.5 °F 43.2 °F 97% 29.62 in 1.0 mi ESE 16.1 mph 19.6 mph N/A Rain Light Rain
7:35 PM 43.9 °F 37.2 °F 43.3 °F 98% 29.61 in 1.2 mi East 13.8 mph - N/A Rain Light Rain
7:55 PM 43.7 °F 37.7 °F 43.0 °F 97% 29.61 in 1.2 mi East 11.5 mph - N/A Rain Light Rain
8:15 PM 43.3 °F 37.7 °F 42.8 °F 98% 29.60 in 1.2 mi East 10.4 mph - N/A Rain Light Rain
8:35 PM 43.0 °F 36.8 °F 42.4 °F 98% 29.59 in 1.0 mi East 11.5 mph - N/A   Overcast
8:55 PM 43.0 °F 37.7 °F 42.4 °F 98% 29.59 in 1.2 mi East 9.2 mph - N/A   Overcast
9:15 PM 43.0 °F 37.7 °F 42.4 °F 98% 29.60 in 1.2 mi East 9.2 mph - N/A   Overcast
9:35 PM 42.8 °F 38.0 °F 42.3 °F 98% 29.59 in 1.0 mi East 8.1 mph - N/A   Overcast
11:15 PM 41.5 °F 35.0 °F 41.0 °F 98% 29.55 in 1.0 mi NNE 11.5 mph - N/A   Unknown
11:55 PM 40.5 °F 34.1 °F 40.1 °F 99% 29.52 in 1.5 mi ENE 10.4 mph - N/A   Overcast